| time (UTC) | temp F | wind direction | speed knots | gust knots | rain 1hr in | rain 24hr in | rain mn in | humidity % | barometer mb |
| 20260510224528 | 79 | 68 | 9.6 | 24.3 | 0.00 | 0.00 | 0.00 | 32 | 1001.3 |
| 20260510223017 | 79 | 313 | 9.6 | 15.6 | 0.00 | 0.00 | 0.00 | 33 | 1001.2 |
| 20260510221518 | 78 | 338 | 7.8 | 19.1 | 0.00 | 0.00 | 0.00 | 33 | 1001.4 |
| 20260510220016 | 78 | 355 | 11.3 | 20.9 | 0.00 | 0.00 | 0.00 | 31 | 1001.4 |
| 20260510214515 | 79 | 29 | 5.2 | 14.8 | 0.00 | 0.00 | 0.00 | 32 | 1001.3 |
| 20260510213015 | 78 | 26 | 7.8 | 19.1 | 0.00 | 0.00 | 0.00 | 32 | 1000.9 |
| 20260510211516 | 80 | 355 | 9.6 | 18.2 | 0.00 | 0.00 | 0.00 | 30 | 1001.6 |
| 20260510210015 | 80 | 36 | 5.2 | 14.8 | 0.00 | 0.00 | 0.00 | 30 | 1001.5 |
| 20260510204515 | 79 | 327 | 5.2 | 15.6 | 0.00 | 0.00 | 0.00 | 28 | 1001.7 |
| 20260510203013 | 80 | 23 | 10.4 | 21.7 | 0.00 | 0.00 | 0.00 | 28 | 1001.6 |
| 20260510201512 | 83 | 47 | 5.2 | 10.4 | 0.00 | 0.00 | 0.00 | 21 | 1001.0 |
| 20260510200012 | 78 | 81 | 7.8 | 17.4 | 0.00 | 0.00 | 0.00 | 32 | 1001.6 |
| 20260510194511 | 78 | 33 | 4.3 | 15.6 | 0.00 | 0.00 | 0.00 | 32 | 1002.0 |
| 20260510193009 | 79 | 5 | 7.8 | 20.9 | 0.00 | 0.00 | 0.00 | 30 | 1001.8 |
| 20260510191507 | 80 | 328 | 6.1 | 18.2 | 0.00 | 0.00 | 0.00 | 27 | 1001.5 |
| 20260510190006 | 81 | 351 | 9.6 | 17.4 | 0.00 | 0.00 | 0.00 | 27 | 1001.3 |
| 20260510184505 | 83 | 32 | 12.2 | 19.1 | 0.00 | 0.00 | 0.00 | 24 | 1001.1 |
| 20260510183012 | 82 | 74 | 10.4 | 18.2 | 0.00 | 0.00 | 0.00 | 25 | 1001.2 |
| 20260510181505 | 84 | 35 | 5.2 | 17.4 | 0.00 | 0.00 | 0.00 | 23 | 1001.3 |
| 20260510180005 | 82 | 55 | 11.3 | 17.4 | 0.00 | 0.00 | 0.00 | 19 | 1001.3 |
| 20260510174502 | 88 | 331 | 4.3 | 10.4 | 0.00 | 0.00 | 0.00 | 11 | 1001.1 |
| 20260510173003 | 87 | 269 | 5.2 | 15.6 | 0.00 | 0.00 | 0.00 | 12 | 1000.9 |
| 20260510171605 | 87 | 288 | 8.7 | 14.8 | 0.00 | 0.00 | 0.00 | 11 | 1001.0 |
| 20260510170113 | 87 | 300 | 7.0 | 15.6 | 0.00 | 0.00 | 0.00 | 11 | 1000.9 |
| 20260510164601 | 86 | 275 | 9.6 | 15.6 | 0.00 | 0.00 | 0.00 | 11 | 1000.9 |
| 20260510163054 | 85 | 261 | 7.0 | 17.4 | 0.00 | 0.00 | 0.00 | 12 | 1000.8 |
| 20260510161553 | 84 | 259 | 8.7 | 15.6 | 0.00 | 0.00 | 0.00 | 12 | 1000.8 |
| 20260510160058 | 83 | 223 | 10.4 | 13.9 | 0.00 | 0.00 | 0.00 | 14 | 1000.8 |
| 20260510154553 | 82 | 246 | 10.4 | 14.8 | 0.00 | 0.00 | 0.00 | 14 | 1000.7 |
| 20260510153048 | 81 | 205 | 10.4 | 14.8 | 0.00 | 0.00 | 0.00 | 16 | 1000.7 |
| 20260510151539 | 80 | 213 | 9.6 | 15.6 | 0.00 | 0.00 | 0.00 | 18 | 1000.7 |
| 20260510150037 | 79 | 207 | 8.7 | 14.8 | 0.00 | 0.00 | 0.00 | 24 | 1000.7 |
| 20260510144532 | 77 | 219 | 9.6 | 13.0 | 0.00 | 0.00 | 0.00 | 26 | 1000.6 |
| 20260510143038 | 76 | 238 | 10.4 | 14.8 | 0.00 | 0.00 | 0.00 | 28 | 1000.6 |
| 20260510141524 | 75 | 233 | 7.0 | 12.2 | 0.00 | 0.00 | 0.00 | 36 | 1000.5 |
| 20260510140022 | 73 | 207 | 7.0 | 10.4 | 0.00 | 0.00 | 0.00 | 38 | 1000.4 |
| 20260510134518 | 72 | 211 | 7.0 | 11.3 | 0.00 | 0.00 | 0.00 | 40 | 1000.2 |
| 20260510133017 | 71 | 206 | 8.7 | 14.8 | 0.00 | 0.00 | 0.00 | 41 | 1000.0 |
| 20260510131514 | 70 | 206 | 7.8 | 15.6 | 0.00 | 0.00 | 0.00 | 41 | 999.9 |
| 20260510130016 | 69 | 200 | 5.2 | 8.7 | 0.00 | 0.00 | 0.00 | 41 | 999.6 |
| 20260510124516 | 70 | 207 | 8.7 | 17.4 | 0.00 | 0.00 | 0.00 | 41 | 999.2 |
| 20260510123014 | 69 | 184 | 10.4 | 13.9 | 0.00 | 0.00 | 0.00 | 40 | 998.8 |
| 20260510121511 | 69 | 211 | 10.4 | 14.8 | 0.00 | 0.00 | 0.00 | 41 | 998.7 |
| 20260510120011 | 69 | 188 | 10.4 | 16.5 | 0.00 | 0.00 | 0.00 | 42 | 998.6 |
| 20260510114513 | 69 | 192 | 10.4 | 15.6 | 0.00 | 0.00 | 0.00 | 42 | 998.5 |
| 20260510113014 | 69 | 187 | 12.2 | 18.2 | 0.00 | 0.00 | 0.00 | 41 | 998.4 |
| 20260510111507 | 69 | 184 | 11.3 | 17.4 | 0.00 | 0.00 | 0.00 | 42 | 998.4 |
| 20260510110010 | 69 | 194 | 11.3 | 20.0 | 0.00 | 0.00 | 0.00 | 42 | 998.4 |
| 20260510104508 | 68 | 180 | 12.2 | 21.7 | 0.00 | 0.00 | 0.00 | 43 | 998.4 |
| 20260510103001 | 69 | 192 | 10.4 | 18.2 | 0.00 | 0.00 | 0.00 | 43 | 998.4 |
| 20260510101559 | 69 | 213 | 12.2 | 20.0 | 0.00 | 0.00 | 0.00 | 41 | 998.3 |
| 20260510100100 | 70 | 207 | 12.2 | 20.0 | 0.00 | 0.00 | 0.00 | 39 | 998.2 |
| 20260510094555 | 71 | 186 | 11.3 | 15.6 | 0.00 | 0.00 | 0.00 | 33 | 998.3 |
| 20260510093054 | 70 | 174 | 7.8 | 11.3 | 0.00 | 0.00 | 0.00 | 33 | 998.2 |
| 20260510091557 | 70 | 184 | 9.6 | 13.9 | 0.00 | 0.00 | 0.00 | 34 | 998.1 |
| 20260510084556 | 70 | 148 | 11.3 | 14.8 | 0.00 | 0.00 | 0.00 | 31 | 998.2 |
| 20260510083047 | 70 | 183 | 7.0 | 13.0 | 0.00 | 0.00 | 0.00 | 31 | 998.3 |
| 20260510081546 | 71 | 169 | 7.8 | 11.3 | 0.00 | 0.00 | 0.00 | 29 | 998.4 |
| 20260510080042 | 72 | 157 | 10.4 | 14.8 | 0.00 | 0.00 | 0.00 | 26 | 998.5 |
| 20260510074540 | 72 | 159 | 10.4 | 13.9 | 0.00 | 0.00 | 0.00 | 28 | 998.7 |
| 20260510073041 | 73 | 167 | 8.7 | 15.6 | 0.00 | 0.00 | 0.00 | 26 | 998.7 |
| 20260510071539 | 72 | 196 | 10.4 | 16.5 | 0.00 | 0.00 | 0.00 | 28 | 998.9 |
| 20260510070043 | 72 | 180 | 9.6 | 17.4 | 0.00 | 0.00 | 0.00 | 32 | 998.9 |
| 20260510064554 | 72 | 133 | 11.3 | 18.2 | 0.00 | 0.00 | 0.00 | 33 | 999.0 |
| 20260510063038 | 71 | 134 | 7.8 | 15.6 | 0.00 | 0.00 | 0.00 | 34 | 999.3 |
| 20260510061541 | 71 | 139 | 9.6 | 15.6 | 0.00 | 0.00 | 0.00 | 35 | 999.4 |
| 20260510060032 | 71 | 121 | 10.4 | 17.4 | 0.00 | 0.00 | 0.00 | 35 | 999.4 |
| 20260510054522 | 72 | 139 | 10.4 | 21.7 | 0.00 | 0.00 | 0.00 | 30 | 999.4 |
| 20260510053019 | 71 | 153 | 10.4 | 20.9 | 0.00 | 0.00 | 0.00 | 33 | 999.6 |
| 20260510051516 | 72 | 169 | 12.2 | 17.4 | 0.00 | 0.00 | 0.00 | 31 | 999.7 |
| 20260510050014 | 72 | 151 | 13.9 | 24.3 | 0.00 | 0.00 | 0.00 | 29 | 999.8 |
| 20260510044513 | 72 | 163 | 9.6 | 19.1 | 0.00 | 0.00 | 0.00 | 28 | 999.8 |
| 20260510043012 | 73 | 103 | 10.4 | 17.4 | 0.00 | 0.00 | 0.00 | 28 | 999.9 |
| 20260510041511 | 73 | 149 | 7.8 | 15.6 | 0.00 | 0.00 | 0.00 | 27 | 1000.0 |
| 20260510040010 | 73 | 155 | 9.6 | 20.0 | 0.00 | 0.00 | 0.00 | 27 | 1000.0 |
| 20260510034510 | 74 | 171 | 9.6 | 16.5 | 0.00 | 0.00 | 0.00 | 26 | 999.8 |
| 20260510033012 | 74 | 142 | 11.3 | 17.4 | 0.00 | 0.00 | 0.00 | 25 | 999.6 |
| 20260510031509 | 75 | 149 | 11.3 | 20.0 | 0.00 | 0.00 | 0.00 | 23 | 999.5 |
| 20260510030008 | 75 | 146 | 10.4 | 17.4 | 0.00 | 0.00 | 0.00 | 21 | 999.4 |
| 20260510024507 | 76 | 167 | 9.6 | 19.1 | 0.00 | 0.00 | 0.00 | 19 | 999.3 |
| 20260510023007 | 76 | 151 | 11.3 | 20.0 | 0.00 | 0.00 | 0.00 | 19 | 999.2 |
| 20260510021509 | 77 | 174 | 9.6 | 16.5 | 0.00 | 0.00 | 0.00 | 19 | 999.2 |
| 20260510020005 | 78 | 161 | 7.8 | 15.6 | 0.00 | 0.00 | 0.00 | 18 | 999.1 |
| 20260510014504 | 78 | 138 | 7.0 | 16.5 | 0.00 | 0.00 | 0.00 | 17 | 998.9 |
| 20260510013004 | 80 | 115 | 6.1 | 11.3 | 0.00 | 0.00 | 0.00 | 12 | 998.8 |
| 20260510011503 | 80 | 160 | 6.1 | 10.4 | 0.00 | 0.00 | 0.00 | 12 | 998.7 |
| 20260510010001 | 81 | 84 | 6.1 | 9.6 | 0.00 | 0.00 | 0.00 | 12 | 998.7 |
| 20260510004602 | 82 | 86 | 4.3 | 7.8 | 0.00 | 0.00 | 0.00 | 11 | 998.7 |
| 20260510003101 | 83 | 72 | 3.5 | 9.6 | 0.00 | 0.00 | 0.00 | 11 | 998.7 |
| 20260510001557 | 84 | 98 | 7.0 | 10.4 | 0.00 | 0.00 | 0.00 | 11 | 998.8 |
| 20260510000104 | 85 | 126 | 3.5 | 7.0 | 0.00 | 0.00 | 0.00 | 10 | 999.0 |
| 20260509234604 | 86 | 340 | 2.6 | 7.0 | 0.00 | 0.00 | 0.00 | 10 | 999.2 |
| 20260509233056 | 86 | 67 | 3.5 | 10.4 | 0.00 | 0.00 | 0.00 | 10 | 999.2 |
| 20260509231607 | 86 | 57 | 1.7 | 5.2 | 0.00 | 0.00 | 0.00 | 10 | 999.3 |
| 20260509230059 | 85 | 29 | 2.6 | 8.7 | 0.00 | 0.00 | 0.00 | 10 | 999.5 |